Location: ActonStarParty
(42.4766°N, 71.4538°W)
Time: 20:21:50
(UTC-04:00)

Daily predictions for brighter satellites

Satellite Brightness Start Highest point End
(mag) Time Altitude Azimuth Time Altitude Azimuth Time Altitude Azimuth
NOSS 3-4 (A) 4.1 19:14:29 10° NW 19:21:31 76° WSW 19:29:00 10° SSE
NOSS 3-4 (C) 4.1 19:14:35 10° NW 19:21:37 77° WSW 19:29:06 10° SSE
ASTRO F (AKARI) 4.1 19:22:02 10° NNE 19:25:11 79° ESE 19:28:19 10° S
Meteor 2-16 Rocket 4.5 19:20:18 10° S 19:26:23 70° E 19:32:31 10° NNE
Cosmos 1844 4.2 19:24:24 10° S 19:29:38 38° ESE 19:34:56 10° NE
ATLAS CENTAUR R/B 4.3 19:29:11 10° W 19:30:46 12° WSW 19:32:18 10° SW
Resurs 1-3 4.3 19:27:48 10° SE 19:31:43 33° ENE 19:35:41 10° N
Helios 1A 4.4 19:29:07 10° ESE 19:32:06 19° ENE 19:35:06 10° NNE
Helios 1B rocket 4.0 19:31:10 10° NE 19:33:43 16° E 19:36:15 10° SE
Cosmos 2058 Rocket 3.7 19:33:13 10° SSW 19:37:40 64° W 19:42:10 10° N
Cosmos 1900 4.5 19:33:39 10° SW 19:38:32 81° WNW 19:43:29 10° NNE
HJ-1C 3.4 19:35:38 10° SSE 19:38:58 60° ENE 19:42:20 10° N
Cosmos 1680 Rocket 4.4 19:34:29 10° NNW 19:39:39 55° WSW 19:44:44 10° S
Cosmos 1937 Rocket 3.7 19:39:11 10° S 19:44:10 47° ESE 19:49:13 10° NNE
Lacrosse 4 Rocket 1.5 19:40:25 10° S 19:44:21 50° ESE 19:48:17 10° NE
Cosmos 2298 Rocket 4.0 19:41:18 10° S 19:46:31 61° ESE 19:51:46 10° NNE
CZ-2D R/B 3.8 19:43:27 10° SE 19:47:01 37° ENE 19:50:38 10° N
SL-27 R/B 3.5 19:44:36 10° N 19:47:43 27° ENE 19:50:23 13° ESE
Cosmos 1934 Rocket 4.1 19:43:08 10° SSE 19:49:02 51° E 19:54:55 10° NNE
SJ-6B 3.4 19:48:01 10° S 19:51:43 58° W 19:55:25 10° NNW
Tiangong 1 0.8 19:49:29 10° W 19:52:25 88° S 19:54:27 18° E
Cosmos 1437 Rocket 2.7 19:50:31 10° S 19:54:27 69° E 19:58:30 10° NNE
Okean 3 Rocket 4.4 19:52:52 10° NNE 19:56:44 30° ENE 20:00:09 12° SE
ALOS 2.6 19:55:10 10° S 19:59:49 70° WSW 20:04:30 10° NNW
USA 186 2.0 19:59:44 24° E 20:00:05 26° ENE 20:02:04 10° NNE
CZ-4B DEB 4.1 20:00:39 20° E 20:01:20 21° ENE 20:03:46 10° NNE
SeaSat 1 3.4 19:56:51 10° S 20:01:36 49° WSW 20:06:23 10° NW
Cosmos 405 3.7 20:00:08 10° SSW 20:03:36 56° WNW 20:07:05 10° N
Lacrosse 5 2.4 19:59:29 10° S 20:04:05 36° SE 20:08:39 10° ENE
Abrixas 4.0 20:02:41 10° NW 20:05:08 25° N 20:06:39 16° NE
Cosmos 1821 Rocket 4.1 20:00:29 10° S 20:06:53 89° ESE 20:13:18 10° N
Cosmos 1758 4.3 20:08:09 18° SE 20:09:59 26° E 20:13:19 10° NNE
In-Cosmos 22 4.1 20:10:06 10° N 20:15:22 57° ENE 20:20:33 10° SSE
Cosmos 1939 Rocket 3.9 20:14:50 24° E 20:16:02 28° ENE 20:19:35 10° N
Cosmos 1844 Rocket 3.0 20:10:44 10° SSW 20:16:22 70° WNW 20:22:00 10° NNE
Resurs 01 Rocket 2.0 20:13:14 10° S 20:17:37 68° WSW 20:22:02 10° NNW
GP-B 3.8 20:16:20 22° SE 20:18:24 33° E 20:22:23 10° NNE
Cosmos 1953 3.0 20:19:44 25° SE 20:21:06 32° E 20:24:45 10° NNE
Cosmos 2278 Rocket 2.2 20:17:22 10° S 20:22:54 58° ESE 20:28:28 10° NNE
BREEZE-M DEB (TANK) 3.1 20:20:47 10° SW 20:23:36 65° SE 20:31:09 10° ENE
Cosmos 1812 Rocket 3.9 20:19:33 10° SSW 20:23:58 67° W 20:28:21 10° N
Cosmos 1605 Rocket 3.9 20:18:33 10° S 20:24:43 68° E 20:31:01 10° NNE
CZ-2C R/B 1.4 20:22:42 10° N 20:24:44 56° W 20:25:16 33° SSW
Cosmos 1833 Rocket 3.8 20:20:15 10° N 20:25:00 27° NE 20:26:46 23° E
Spot 1 4.2 20:24:55 11° SSE 20:29:12 81° ENE 20:34:02 10° NNW
Meteor 1-24 Rocket 4.1 20:26:26 10° NNW 20:31:50 66° W 20:37:23 10° S
H-2A R/B 4.2 20:30:25 10° SSW 20:34:03 39° W 20:37:45 10° NNW
YAOGAN 6 4.3 20:35:03 20° NE 20:35:03 20° NE 20:37:01 10° NNE
Cosmos 2297 4.3 20:29:04 10° SSE 20:34:04 32° ESE 20:39:06 10° NE
H-2A R/B 4.2 20:36:31 11° NE 20:36:31 11° NE 20:37:52 10° NE
Cosmos 2123 Rocket 4.1 20:30:01 10° N 20:36:21 79° W 20:42:38 10° S
Spot 2 Rocket 4.4 20:31:33 10° S 20:36:30 51° W 20:41:29 10° NNW
SAR-Lupe-4 3.8 20:35:51 18° S 20:38:26 68° WSW 20:42:01 10° NNW
Cosmos 1766 Rocket 4.0 20:35:17 10° N 20:39:32 40° ENE 20:39:53 39° E
CZ-3 Stage 3 4.0 20:01:27 10° WSW 20:40:32 49° S 20:45:16 26° SE
USA 215 3.1 20:34:36 10° NE 20:41:09 74° SE 20:47:40 10° SW
Lacrosse 5 rocket 3.3 20:40:31 10° NNW 20:42:59 16° NNE 20:43:45 15° NE
Delta 2 Rocket 4.5 20:39:49 10° WSW 20:43:41 29° S 20:44:17 28° S
RESURS DK-1 2.5 20:40:41 10° NNW 20:44:48 70° WSW 20:46:35 32° S
Cosmos 1076 Rocket 3.4 20:42:06 10° N 20:46:20 65° E 20:47:14 50° SE
Timation 1 Rocket 4.4 20:41:01 10° S 20:46:48 51° ESE 20:52:37 10° NE
Cosmos 158 Rocket 4.4 20:46:05 10° N 20:50:52 40° ENE 20:51:21 40° ENE
Cosmos 2082 Rocket 2.5 20:46:43 10° NNW 20:52:14 47° ENE 20:53:24 41° E
Cosmos 1153 Rocket 4.4 20:46:12 10° S 20:52:34 77° E 20:58:59 10° N
Envisat 2.9 20:51:33 28° SSE 20:54:16 87° ENE 20:59:23 10° NNW
Cosmos 1125 Rocket 3.4 20:54:45 10° S 20:59:51 63° ESE 21:05:01 10° NNE
Cosmos 1048 Rocket 3.9 20:59:05 10° NNW 21:04:12 64° ENE 21:04:43 60° E
SJ-11-01 4.3 21:03:47 39° S 21:05:32 77° WSW 21:10:18 10° NNW
Cosmos 1544 3.9 21:04:08 18° SSW 21:06:33 50° W 21:10:09 10° N
Meteor 1-4 Rocket 3.7 21:08:19 34° N 21:08:19 34° N 21:10:28 10° N
Helios 1A 4.3 21:04:20 15° SSW 21:07:25 37° W 21:11:19 10° NNW
BREEZE-M DEB (TANK) 4.3 21:05:45 10° NW 21:06:50 20° NNW 21:06:50 20° NNW
Meteor 1-21 Rocket 4.2 21:02:26 10° N 21:08:15 87° W 21:10:58 34° S
Cosmos-2242 4.2 21:10:17 30° NNE 21:10:17 30° NNE 21:12:35 10° NNE
Helios 1B rocket 3.6 21:05:18 10° N 21:09:13 43° WNW 21:13:08 10° SW
USA 267 3.6 21:11:56 40° ENE 21:13:53 52° NNE 21:20:12 10° NW
Cosmos 1818 3.4 21:09:50 10° NNW 21:15:20 84° ENE 21:15:57 70° SE
CZ-3B DEB 3.1 21:08:16 10° WSW 21:17:48 53° NW 21:20:48 23° NNE
COSMOS 2487 4.3 21:19:36 10° NNW 21:21:24 28° NNW 21:21:24 28° NNW
Lacrosse 4 Rocket 4.2 21:20:39 10° W 21:23:21 17° NW 21:26:03 10° N
ERS-1 Rocket 2.8 21:23:35 83° S 21:23:47 89° WSW 21:28:51 10° NNW
ARGOS 3.8 21:25:36 40° NE 21:25:36 40° NE 21:29:42 10° N
Cosmos 2344 4.3 21:17:13 10° WSW 21:24:43 55° NW 21:33:27 10° NNE
Cosmos 1459 Rocket 3.8 21:24:01 45° S 21:26:06 82° E 21:32:20 10° N
Cosmos 2173 Rocket 3.8 21:25:16 52° S 21:26:54 81° E 21:33:09 10° N
Tiangong 1 4.2 21:25:32 10° W 21:25:53 12° W 21:25:53 12° W
MetOp-A 4.2 21:33:00 67° NNE 21:33:00 67° NNE 21:37:49 10° N
Cosmos 1269 Rocket 4.1 21:28:02 10° NNW 21:33:19 71° WSW 21:33:32 70° SW
Cosmos 1340 Rocket 4.4 21:30:07 10° N 21:32:19 31° N 21:32:19 31° N
Cosmos 1674 4.3 21:31:49 10° NNW 21:34:15 33° NW 21:34:15 33° NW
Cosmos 1408 Rocket 4.3 21:31:57 10° NNW 21:36:11 50° W 21:36:11 50° W
Lacrosse 5 2.8 21:42:07 10° WSW 21:46:59 45° NW 21:47:58 40° N
SPOT 5 3.6 21:49:18 56° N 21:49:18 56° N 21:53:30 10° NNW
Cosmos 2016 Rocket 4.0 21:58:20 75° NNW 21:58:20 75° NNW 22:04:03 10° N
Cosmos 2278 Rocket 4.4 22:02:51 10° WSW 22:07:22 24° NW 22:11:55 10° N
Cosmos 1833 Rocket 3.5 22:03:47 10° NW 22:08:29 45° W 22:08:29 45° W
Tsikada Rocket 4.5 22:05:02 10° N 22:09:39 53° N 22:09:39 53° N
H-2A R/B 3.5 22:17:09 33° N 22:17:09 33° N 22:20:03 10° N
Lacrosse 5 rocket 4.4 22:19:04 10° NW 22:19:28 13° NW 22:19:28 13° NW
USA 215 4.3 22:18:01 11° NE 22:23:54 42° NNW 22:29:56 10° W
Terra 4.3 22:29:54 17° N 22:29:54 17° N 22:30:58 10° N
Cosmos 2082 Rocket 4.0 22:31:24 10° NW 22:35:17 25° W 22:35:17 25° W
USA 267 4.4 22:59:17 36° WNW 22:59:17 36° WNW 23:03:15 10° NW
